Regional Weather Roundup
Issued by NWS Grand Forks, ND

Home | Current Version | Previous Version | Text Only | Print | Product List | Glossary Off
Versions: 1 2 3 4 5 6 7 8 9 10 11 12 13 14 15 16 17 18 19 20 21 22 23 24 25 26 27 28 29 30 31 32 33 34 35 36 37 38 39 40 41 42 43 44 45 46 47 48 49 50

000
ASUS43 KFGF 222031
RWRFGF
PRAIRIE TO PINES  WEATHER ROUNDUP
NATIONAL WEATHER SERVICE EASTERN NORTH DAKOTA/GRAND FORKS ND
300 PM CDT TUE APR 22 2014

 **SATELLITE DATA USED TO AUGMENT SKY COVER AT AUTOMATED STATIONS**
 *****  WEATHER ACROSS EASTERN NORTH DAKOTA  *****

CITY           SKY/WX    TMP DP  RH WIND       PRES   REMARKS
GRAND FORKS    MOSUNNY   59  34  39 S5        30.04F
GRAND FRKS AFB SUNNY     60  34  36 SE8       30.04F
GRAND FRKS NWS   N/A     63 N/A N/A SE5         N/A
DEVILS LAKE    SUNNY     61  30  31 SE13      29.98F
FARGO          SUNNY     62  33  33 E7        30.04F
WAHPETON ARPT  MOCLDY    61  30  31 SE12      30.03F
$$

 ***** WEATHER ACROSS CENTRAL AND WESTERN NORTH DAKOTA  *****

CITY           SKY/WX    TMP DP  RH WIND       PRES   REMARKS
BISMARCK       MOSUNNY   70  29  21 S24G31    29.88F
MINOT          MOSUNNY   67  29  24 E18G26    29.88F
JAMESTOWN      MOSUNNY   63  36  36 SE18G25   29.96F
MINOT AFB      MOSUNNY   67  33  27 SE18G28   29.88F
GARRISON         N/A     69  30  23 SE21      29.86F
WILLISTON      PTSUNNY   69  28  21 SE23      29.77F
DICKINSON      MOSUNNY   70  29  21 SE31G39   29.77F
HETTINGER      SUNNY     68  33  27 SE22G32   29.79F
$$

 *****  OTHER AIRPORT OBSERVATIONS IN OUR AREA  *****

CITY           SKY/WX    TMP DP  RH WIND       PRES   REMARKS
WALHALLA       FAIR      59  36  41 SE14      30.03F
GRAFTON AIRPOR FAIR      57  37  47 S6        30.04F
VALLEY CITY AR FAIR      63  30  29 SE14G21   29.99F
CANDO          FAIR      63  28  27 SE13G21   29.98F
CAVALIER APRT  FAIR      57  36  44 SE6       30.04F
GWINNER        CLEAR     64  34  32 E16       30.00F
SHEYENNE NWR     N/A     65  33  30 SE8       29.95
ROLLA          FAIR      57  32  38 SE14      29.98F
 ***** THE ABOVE OBSERVATIONS ARE NON NWS ARE NOT QUALITY
       CONTROLLED AND MAY MIS-REPORT RAIN FOR SNOW...
$$

  *****  WEATHER ACROSS NORTHERN MINNESOTA  *****

CITY           SKY/WX    TMP DP  RH WIND       PRES   REMARKS
FLAG ISLAND    SUNNY     36  27  69 S7        30.11S
WARROAD        SUNNY     45  28  53 E8        30.11F
ROSEAU         SUNNY     54  32  43 NE3       30.08F
HALLOCK        CLOUDY    57  36  44 SE5       30.05F
THF RVR FALLS  SUNNY     55  32  41 SW3       30.08S
BAUDETTE       SUNNY     51  26  37 NW6       30.10F
WASKISH        SUNNY     50  27  40 W8        30.09F
CROOKSTON      SUNNY     59  30  33 CALM      30.06F
$$
  *****  WEATHER ACROSS CENTRAL AND WEST MINNESOTA  *****

CITY           SKY/WX    TMP DP  RH WIND       PRES   REMARKS
FOSSTON        SUNNY     59  30  33 CALM      30.07F
BEMIDJI        SUNNY     55  29  37 N9G20     30.07F
PARK RAPIDS    SUNNY     55  28  35 N6        30.07F
ELBOW LAKE     FAIR      58  33  38 E7        30.04F
WADENA         SUNNY     55  32  41 CALM      30.06F
DETROIT LAKES  SUNNY     55  32  41 CALM      30.06F
MOORHEAD       SUNNY     61  27  27 SE6       30.04F
FERGUS FALLS   MOSUNNY   57  27  30 S5        30.01F
MORRIS MN      CLOUDY    61  34  36 E8        30.04F
STAPLES        SUNNY     57  27  30 NW9       30.07F
$$
  *****  WEATHER ELSEWHERE ACROSS MINNESOTA  *****

CITY           SKY/WX    TMP DP  RH WIND       PRES   REMARKS
DULUTH         MOSUNNY   50  24  36 NW5       30.07S
INTRNTL FALLS  SUNNY     49  22  34 CALM      30.09F
ELY            SUNNY     48  18  29 N8        30.07S
CLOQUET        SUNNY     52  18  25 NW10G17   30.07F
WHEATON        CLOUDY    63  36  36 E12       30.05F
BRAINERD       SUNNY     59  26  28 N12G17    30.10S
HIBBING        SUNNY     52  23  32 NW8G20    30.08S
ALEXANDRIA     MOSUNNY   56  33  42 N5        30.07F
SAINT CLOUD    SUNNY     58  31  35 VRB6      30.08F
MINNEAPOLIS    MOSUNNY   56  30  37 NW8G21    30.08F
$$

  *****  WEATHER ACROSS SOUTH DAKOTA  *****

CITY           SKY/WX    TMP DP  RH WIND       PRES   REMARKS
SIOUX FALLS    PTSUNNY   65  30  27 VRB6G20   30.03F
BROOKINGS      NOT AVBL
WATERTOWN      SUNNY     63  32  31 S9G18     30.01F
HURON          CLOUDY    65  29  25 SE18      29.95F
SISSETON         N/A     63  30  28 SE10      30.01F
ABERDEEN       MOSUNNY   65  29  25 S17G28    29.96F
MITCHELL       CLOUDY    65  29  25 SE24      29.97F
PIERRE         MOSUNNY   73  33  23 SE28G36   29.82F
MOBRIDGE       PTSUNNY   68  30  24 SE23      29.84F
RAPID CITY     PTSUNNY   75  40  28 S16G25    29.69F
$$

  *****  SOME WEATHER IN NEARBY STATES *****

CITY           SKY/WX    TMP DP  RH WIND       PRES   REMARKS
GLASGOW MT     MOSUNNY   72  32  23 SE24G38   29.63F
GREAT FALLS MT CLOUDY    68  35  29 S9        29.48F
CHEYENNE WY    CLOUDY    69  33  26 S13       29.87F
SCOTTSBLUFF NE PTSUNNY   79  41  25 SE17G23   29.76F
OMAHA NE       MOSUNNY   65  31  28 S5        30.08F
DES MOINES IA  MOSUNNY   65  30  27 N9        30.08F
DAVENPORT IA   SUNNY     63  29  27 NW17G24   30.03F
CHICAGO IL     MOSUNNY   59  28  30 NW14G21   29.95S
EAU CLAIRE WI  MOSUNNY   55  21  26 NW15G23   30.06S
LA CROSSE WI   SUNNY     60  25  26 NW15G26   30.03F
$$

  *****  SOME NATIONAL WEATHER *****

CITY           SKY/WX    TMP DP  RH WIND       PRES   REMARKS
LA GUARDIA NY  PTSUNNY   64  45  49 S13       29.55F
RALEIGH NC     PTSUNNY   82  48  30 W13G25    29.68F
ATLANTA GA     LGT RAIN  65  61  87 W10       29.88F
NEW ORLEANS LA PTSUNNY   72  66  81 W12       29.93F
OKLAHOMA CITY  SUNNY     80  34  19 N7        30.06F
ALBUQUERQUE NM MOSUNNY   80  28  15 S15G35    30.01F
SALT LAKE CITY CLOUDY    73  28  18 S29G38    29.59F
LOS ANGELES CA MOSUNNY   65  48  54 W14       29.97F
BOISE ID       CLOUDY    52  41  66 SE7       29.70F
SEATTLE WA     PTSUNNY   52  37  56 S9        29.90S
$$

*** WEATHER ACROSS MANITOBA...SASKATCHEWAN AND ONTARIO ***
                ***ONTARIO***

CITY           SKY/WX    TMP DP  RH WIND       PRES   REMARKS
GERALDTON      PTSUNNY   36  25  64 N10       30.03R
THUNDER BAY    MOSUNNY   45  28  53 N8G20     30.07R
SIOUX LOOKOUT  MOSUNNY   46  19  34 N7        30.07S
TORONTO        MOSUNNY   50  37  62 W23G30    29.61R
BIG TROUT LK   SUNNY     41  23  48 S8        30.03F
PICKLE LAKE    MOSUNNY   43  21  42 NW3       30.04F
DRYDEN         SUNNY     48  19  32 N7        30.07S
KENORA         SUNNY     46  23  39 SW8       30.10S
$$
                *** MANITOBA***

CITY           SKY/WX    TMP DP  RH WIND       PRES   REMARKS
BRANDON        SUNNY     59  34  38 SE10      30.00F
DAUPHIN        SUNNY     57  41  54 SE10      30.00F
ISLAND LAKE    CLOUDY    50  41  71 CALM      30.03S
PILOT MOUND      N/A     61  28  29 SE9         N/A
THE PAS        CLOUDY    50  30  46 S6          N/A
THOMPSON       PTSUNNY   48  34  57 S14       29.99S
WINNIPEG       MOSUNNY   55  34  44 SE6       30.07F
LYNN LAKE      CLOUDY    45  32  61 N9        30.00R
CHURCHILL      PTSUNNY   27  25  93 N12       30.09S WCI  16
GILLAM         PTSUNNY   45  30  57 NW5       30.02S
$$
                ***SASKATCHEWAN***

CITY           SKY/WX    TMP DP  RH WIND       PRES   REMARKS
ESTEVAN        CLOUDY    66  36  32 SE23G30   29.85F
KINDERSLEY     MOSUNNY   70  28  21 SE28G38   29.61F
LLOYDMINSTER   PTSUNNY   64  30  27 E21G29    29.67F
PRINCE ALBERT  PTSUNNY   55  41  58 SE17      29.84F
REGINA         PTSUNNY   68  34  28 SE30G39   29.80F
YORKTON        SUNNY     55  41  58 SE17G26   29.92F
N. BATTLEFORD  SUNNY     64  36  34 SE20G25   29.74F
LA RONGE       MOSUNNY   52  30  43 NE14      29.88F
SASKATOON      MOSUNNY   64  41  42 E17       29.77F
SWIFT CURRENT    N/A     70  23  17 MISG      29.63F
$$
NOTE: THESE ARE AUTOMATED STATIONS WITH LIMITED QUALITY CONTROL
      "FAIR" INDICATES FEW OR NO CLOUDS BELOW 12,000 FEET WITH NO
      SIGNIFICANT WEATHER AND/OR OBSTRUCTIONS TO VISIBILITY.
      SKY/WX - SKY CONDITION AND SIGNIFICANT WEATHER.
      TMP - AIR TEMPERATURE.    DP   - DEWPOINT TEMPERATURE.
      RH  - RELATIVE HUMIDITY.  PRES - PRESSURE.
      HX  - HEAT INDEX.         WCI  - WIND CHILL INDEX.
$



USA.gov is the U.S. government's official web portal to all federal, state and local government web resources and services.